User: anonymous   Login
Location: Unspecified
(0.0000°N, 0.0000°E)
Time: 09:06:23
(UTC+00:00)
Language:

ICO F2 - Orbit

View from above orbital plane
View from above orbital plane
View from above satellite
View from above satellite

Ground track
Ground track

The orbit data is extracted from the following two-line orbital elements,

1 26857U 01026A   18016.87952174 +.00000020 +00000-0 +00000-0 0  9998
2 26857 044.8204 232.7179 0017304 024.4065 335.7326 03.92404795085116
Epoch (UTC): 16 January 2018 21:06:30
Eccentricity: 0.0017304
inclination: 44.8204°
perigee height: 10571 km
apogee height: 10630 km
right ascension of ascending node: 232.7179°
argument of perigee: 24.4065°
revolutions per day: 3.92404795
mean anomaly at epoch: 335.7326°
orbit number at epoch: 8511

The dashed part of the orbit path shows where the satellite is in the earth's shadow,  

DLR